• In Romania
  • List of Countries
  • For 7 days
  • Water Temperature
  • Satellite Maps
  • Weather Map
  • Weather Widgets
  • user-avatar
    Login

    Hourly Weather Dolina

    Today, 15 November, Thursday

    Time Temperature Precipitation Wind Pressure Humidity
    00:00 +2°C° 0.1 mm 6 mps 735 mmHg 87%
    01:00 +2°C° 0.1 mm 6 mps 734 mmHg 87%
    02:00 +2°C° 0.1 mm 6 mps 734 mmHg 87%
    03:00 +2°C° 0 mm 5 mps 734 mmHg 85%
    04:00 +2°C° 0.1 mm 6 mps 734 mmHg 86%
    05:00 +2°C° 0.1 mm 6 mps 734 mmHg 87%
    06:00 +2°C° 0.1 mm 6 mps 733 mmHg 88%
    07:00 +2°C° 0.1 mm 6 mps 733 mmHg 88%
    08:00 +3°C° 0.1 mm 6 mps 733 mmHg 88%
    09:00 +3°C° 0 mm 6 mps 733 mmHg 88%
    10:00 +3°C° 0.1 mm 6 mps 733 mmHg 86%
    11:00 +4°C° 0.1 mm 6 mps 733 mmHg 84%
    12:00 +4°C° 0.1 mm 6 mps 733 mmHg 83%
    13:00 +4°C° 0.1 mm 6 mps 733 mmHg 83%
    14:00 +6°C° 0.1 mm 5 mps 733 mmHg 83%
    15:00 +6°C° 0.1 mm 5 mps 733 mmHg 84%
    16:00 +5°C° 0 mm 5 mps 734 mmHg 85%
    17:00 +5°C° 0 mm 5 mps 734 mmHg 87%
    18:00 +5°C° 0 mm 5 mps 734 mmHg 88%
    19:00 +5°C° 0 mm 5 mps 735 mmHg 89%
    20:00 +5°C° 0 mm 4 mps 735 mmHg 89%
    21:00 +5°C° 0 mm 4 mps 735 mmHg 90%
    22:00 +5°C° 0.1 mm 4 mps 735 mmHg 90%
    23:00 +5°C° 0.1 mm 4 mps 735 mmHg 90%

    Tomorrow, 16 November, Friday

    Time Temperature Precipitation Wind Pressure Humidity
    00:00 +5°C° 0.1 mm 4 mps 735 mmHg 90%
    01:00 +5°C° 0.1 mm 4 mps 736 mmHg 90%
    02:00 +5°C° 0.1 mm 4 mps 736 mmHg 90%
    03:00 +5°C° 0.1 mm 4 mps 736 mmHg 90%
    04:00 +5°C° 0.1 mm 4 mps 736 mmHg 90%
    05:00 +5°C° 0.1 mm 4 mps 736 mmHg 89%
    06:00 +4°C° 0.1 mm 4 mps 736 mmHg 89%
    07:00 +5°C° 0.1 mm 4 mps 736 mmHg 89%
    08:00 +5°C° 0.1 mm 4 mps 736 mmHg 88%
    09:00 +5°C° 0.1 mm 5 mps 736 mmHg 87%
    10:00 +5°C° 0.1 mm 5 mps 736 mmHg 87%
    11:00 +5°C° 0.1 mm 5 mps 736 mmHg 87%
    12:00 +4°C° 0.1 mm 6 mps 736 mmHg 87%
    13:00 +5°C° 0.1 mm 5 mps 736 mmHg 87%
    14:00 +5°C° 0.1 mm 5 mps 736 mmHg 88%
    15:00 +5°C° 0.1 mm 5 mps 736 mmHg 88%
    16:00 +5°C° 0.2 mm 5 mps 736 mmHg 89%
    17:00 +4°C° 0.2 mm 6 mps 737 mmHg 89%
    18:00 +3°C° 0.2 mm 6 mps 737 mmHg 90%
    19:00 +3°C° 0.1 mm 6 mps 737 mmHg 89%
    20:00 +3°C° 0.1 mm 6 mps 737 mmHg 88%
    21:00 +3°C° 0.1 mm 6 mps 737 mmHg 88%
    22:00 +3°C° 0.1 mm 6 mps 737 mmHg 88%
    23:00 +3°C° 0.1 mm 6 mps 737 mmHg 87%

    Day after tomorrow, 17 November, Saturday

    Time Temperature Precipitation Wind Pressure Humidity
    00:00 +3°C° 0.1 mm 6 mps 736 mmHg 87%
    01:00 +3°C° 0.1 mm 6 mps 737 mmHg 87%
    02:00 +3°C° 0.1 mm 6 mps 737 mmHg 87%
    03:00 +3°C° 0.1 mm 6 mps 737 mmHg 86%
    04:00 +2°C° 0.1 mm 5 mps 737 mmHg 87%
    05:00 +2°C° 0.1 mm 5 mps 737 mmHg 88%
    06:00 +3°C° 0.1 mm 4 mps 737 mmHg 89%
    07:00 +3°C° 0.7 mm 4 mps 737 mmHg 89%
    08:00 +4°C° 0.7 mm 4 mps 737 mmHg 89%
    09:00 +4°C° 0.7 mm 4 mps 738 mmHg 90%
    10:00 +4°C° 0.6 mm 3 mps 738 mmHg 89%
    11:00 +4°C° 0.6 mm 3 mps 738 mmHg 88%
    12:00 +5°C° 0.6 mm 3 mps 738 mmHg 88%
    13:00 +5°C° 0.3 mm 3 mps 738 mmHg 88%
    14:00 +6°C° 0.3 mm 2 mps 738 mmHg 89%
    15:00 +6°C° 0.3 mm 2 mps 738 mmHg 89%
    16:00 +6°C° 0.1 mm 2 mps 738 mmHg 90%
    17:00 +6°C° 0.1 mm 1 mps 739 mmHg 92%
    18:00 +6°C° 0.1 mm 1 mps 739 mmHg 93%
    19:00 +6°C° 0 mm 1 mps 739 mmHg 93%
    20:00 +6°C° 0 mm 1 mps 739 mmHg 92%
    21:00 +6°C° 0 mm 1 mps 739 mmHg 92%
    22:00 +6°C° 0 mm 1 mps 739 mmHg 90%
    23:00 +5°C° 0 mm 1 mps 738 mmHg 89%

    18 November, Sunday

    Time Temperature Precipitation Wind Pressure Humidity
    00:00 +5°C° 0 mm 1 mps 738 mmHg 88%
    01:00 +5°C° 0 mm 1 mps 738 mmHg 87%
    02:00 +5°C° 0 mm 1 mps 738 mmHg 86%
    03:00 +5°C° 0 mm 1 mps 738 mmHg 85%
    04:00 +5°C° 0 mm 1 mps 737 mmHg 85%
    05:00 +5°C° 0 mm 1 mps 737 mmHg 84%
    06:00 +5°C° 0 mm 1 mps 737 mmHg 84%
    07:00 +6°C° 0 mm 1 mps 737 mmHg 81%
    08:00 +6°C° 0 mm 1 mps 737 mmHg 79%
    09:00 +7°C° 0 mm 1 mps 737 mmHg 77%
    10:00 +8°C° 0 mm 1 mps 737 mmHg 74%
    11:00 +8°C° 0 mm 2 mps 736 mmHg 71%
    12:00 +8°C° 0 mm 2 mps 736 mmHg 68%
    13:00 +8°C° 0 mm 2 mps 736 mmHg 71%
    14:00 +8°C° 0 mm 3 mps 736 mmHg 73%
    15:00 +8°C° 0 mm 3 mps 736 mmHg 75%
    16:00 +7°C° 0.1 mm 2 mps 736 mmHg 78%
    17:00 +7°C° 0.1 mm 2 mps 737 mmHg 81%
    18:00 +6°C° 0.1 mm 2 mps 737 mmHg 84%
    19:00 +7°C° 0.1 mm 1 mps 737 mmHg 85%
    20:00 +7°C° 0.1 mm 1 mps 737 mmHg 86%
    21:00 +7°C° 0.1 mm 1 mps 738 mmHg 88%
    22:00 +7°C° 0 mm 1 mps 738 mmHg 88%
    23:00 +6°C° 0 mm 1 mps 737 mmHg 89%

    19 November, Monday

    Time Temperature Precipitation Wind Pressure Humidity
    00:00 +6°C° 0 mm 1 mps 737 mmHg 90%
    01:00 +6°C° 0 mm 1 mps 737 mmHg 90%
    02:00 +6°C° 0 mm 1 mps 738 mmHg 90%
    03:00 +6°C° 0 mm 1 mps 738 mmHg 90%
    04:00 +5°C° 0 mm 1 mps 738 mmHg 90%
    05:00 +5°C° 0 mm 1 mps 738 mmHg 90%
    06:00 +5°C° 0 mm 1 mps 738 mmHg 89%
    07:00 +6°C° 0 mm 1 mps 738 mmHg 86%
    08:00 +6°C° 0 mm 1 mps 738 mmHg 83%
    09:00 +7°C° 0 mm 1 mps 738 mmHg 80%
    10:00 +7°C° 0 mm 2 mps 738 mmHg 76%
    11:00 +8°C° 0 mm 2 mps 737 mmHg 72%
    12:00 +9°C° 0 mm 3 mps 737 mmHg 67%
    13:00 +9°C° 0 mm 3 mps 737 mmHg 69%
    14:00 +9°C° 0 mm 3 mps 737 mmHg 71%
    15:00 +7°C° 0 mm 4 mps 736 mmHg 73%
    16:00 +7°C° 0 mm 4 mps 737 mmHg 77%
    17:00 +6°C° 0 mm 4 mps 737 mmHg 82%
    18:00 +5°C° 0 mm 4 mps 737 mmHg 86%
    19:00 +5°C° 0 mm 4 mps 737 mmHg 85%
    20:00 +5°C° 0 mm 4 mps 737 mmHg 84%
    21:00 +3°C° 0 mm 5 mps 737 mmHg 84%
    22:00 +3°C° 0 mm 5 mps 737 mmHg 83%
    23:00 +3°C° 0 mm 5 mps 737 mmHg 83%

    20 November, Tuesday

    Time Temperature Precipitation Wind Pressure Humidity
    00:00 +2°C° 0 mm 5 mps 737 mmHg 83%
    01:00 +3°C° 0 mm 4 mps 736 mmHg 83%
    02:00 +3°C° 0 mm 4 mps 736 mmHg 84%
    03:00 +3°C° 0 mm 4 mps 736 mmHg 84%
    04:00 +3°C° 0 mm 4 mps 736 mmHg 84%
    05:00 +3°C° 0 mm 4 mps 736 mmHg 84%
    06:00 +3°C° 0 mm 4 mps 737 mmHg 84%
    07:00 +4°C° 0 mm 4 mps 737 mmHg 84%
    08:00 +4°C° 0 mm 4 mps 737 mmHg 84%
    09:00 +4°C° 0 mm 4 mps 737 mmHg 83%
    10:00 +5°C° 0 mm 4 mps 737 mmHg 81%
    11:00 +5°C° 0 mm 4 mps 737 mmHg 79%
    12:00 +6°C° 0 mm 4 mps 736 mmHg 77%
    13:00 +6°C° 0 mm 4 mps 736 mmHg 77%
    14:00 +6°C° 0 mm 4 mps 736 mmHg 78%
    15:00 +6°C° 0 mm 4 mps 736 mmHg 78%
    16:00 +7°C° 0 mm 3 mps 737 mmHg 81%
    17:00 +7°C° 0 mm 3 mps 737 mmHg 84%
    18:00 +5°C° 0 mm 3 mps 737 mmHg 86%
    19:00 +5°C° 0 mm 3 mps 737 mmHg 87%
    20:00 +5°C° 0 mm 3 mps 737 mmHg 88%
    21:00 +5°C° 0 mm 3 mps 737 mmHg 88%
    22:00 +6°C° 0 mm 2 mps 737 mmHg 88%
    23:00 +6°C° 0 mm 2 mps 737 mmHg 88%
    Show more